Regional Weather Roundup
Issued by NWS

Home | Current Version | Previous Version | Text Only | Print | Product List | Glossary On
Versions: 1 2 3 4 5 6 7 8 9 10 11 12 13 14 15 16 17 18 19 20 21 22 23 24 25 26 27 28 29 30 31 32 33 34 35 36 37 38 39 40 41 42 43 44 45 46 47 48 49 50
000
ASUS43 KLMK 282310
RWRKY
KENTUCKY REGIONAL WEATHER ROUNDUP
NATIONAL WEATHER SERVICE LOUISVILLE KY
700 PM EDT WED SEP 28 2016

NOTE "FAIR" INDICATES FEW OR NO CLOUDS BELOW 12,000 FEET
WITH NO SIGNIFICANT WEATHER AND/OR OBSTRUCTIONS TO VISIBILITY.

KYZ001>023-026-027-061>063-070>075-290000-
WESTERN AND SOUTH CENTRAL KENTUCKY

CITY           SKY/WX    TMP DP  RH WIND       PRES   REMARKS
PADUCAH        CLEAR     67  45  45 N15G23    29.99R
HENDERSON      MOCLDY    64  43  45 NW15G21   29.98R
OWENSBORO      PTCLDY   N/A N/A N/A NW14G23   29.95R
HOPKINSVILLE   PTCLDY    69  47  45 NW12G17   29.94R
BOWLING GREEN  MOCLDY    64  61  90 SW5       29.93R
GLASGOW        CLOUDY    60  60 100 CALM      29.93R
$$

KYZ024-025-028>034-038-045-046-053-290000-
NORTH CENTRAL KENTUCKY

CITY           SKY/WX    TMP DP  RH WIND       PRES   REMARKS
LOUISVILLE/SDF MOCLDY    63  49  60 N14       29.92R
LOUISVILLE/LOU PTCLDY    63  50  62 NW9       29.93R
FORT KNOX      PTCLDY    64  56  76 W3        29.90R
$$

KYZ035>037-039>044-047>052-055>060-089>105-290000-
NORTHEAST KENTUCKY

CITY           SKY/WX    TMP DP  RH WIND       PRES   REMARKS
LEXINGTON      CLOUDY    59  56  89 SW7       29.93R
COVINGTON      HVY RAIN  55  52  89 W9G28     29.93R FOG
FRANKFORT      PTCLDY    60  56  86 W3        29.91R
$$

KYZ054-064>069-076>088-106>120-290000-
SOUTHEAST KENTUCKY

CITY           SKY/WX    TMP DP  RH WIND       PRES   REMARKS
JACKSON        CLOUDY    61  53  75 N10G23    29.91R
LONDON         CLOUDY    64  52  64 N16       29.91R
SOMERSET       DRIZZLE   61  54  77 N5        29.94R
MIDDLESBORO    CLEAR     75  48  38 S5        29.88S
MONTICELLO     LGT RAIN  64  56  75 N14G22    29.94R
$$





USA.gov is the U.S. government's official web portal to all federal, state and local government web resources and services.